Simultaneous Nadir Overpasses (SNOs) Predictions

Prediction of SNOs between AQUA and METOP-B Satellite Orbit:

Table of predicted SNOs for the next 14.0 days since TLE Epoch: 8/26/2023
Index Date (AQUA) Time (AQUA) Lat,Lon (AQUA) SZA (AQUA ) Date (METOP-B) Time (METOP-B) Lat,Lon (METOP-B) SZA (METOP-B ) Distance(km) Time Diff (sec)
1 08/28/2023 14:31:53 74.72, -41.79 65.02 08/28/2023 14:30:40 74.71, -41.76 65.02 1.21 73
2 08/28/2023 15:21:18 -74.79, 125.68 114.90 08/28/2023 15:21:20 -74.79, 125.78 114.90 3.05 2
3 08/28/2023 16:10:45 74.91, -66.96 65.24 08/28/2023 16:11:57 74.93, -66.50 65.25 13.73 72
4 08/31/2023 08:24:07 74.77, 50.07 66.04 08/31/2023 08:23:37 74.78, 50.17 66.05 3.14 30
5 08/31/2023 09:13:32 -74.84,-142.45 113.88 08/31/2023 09:14:18 -74.81,-142.41 113.90 2.97 46
6 09/03/2023 01:26:54 -74.75, -25.54 113.01 09/03/2023 01:25:56 -74.75, -25.48 112.99 1.85 58
7 09/03/2023 02:16:20 74.81, 141.94 67.08 09/03/2023 02:16:35 74.79, 141.95 67.06 2.61 15
8 09/05/2023 18:29:31 74.21, -99.89 67.44 09/05/2023 18:28:25 74.13,-102.68 67.42 85.11 66
9 09/05/2023 19:19:06 -74.79, 66.34 111.96 09/05/2023 19:18:53 -74.81, 66.41 111.94 3.00 13
10 09/05/2023 20:08:32 74.86,-126.19 68.14 09/05/2023 20:09:32 74.84,-126.16 68.11 2.27 60
11 09/08/2023 12:21:51 74.77, -9.26 69.03 09/08/2023 12:21:09 74.76, -9.29 69.03 0.89 42
12 09/08/2023 13:11:16 -74.83, 158.22 110.89 09/08/2023 13:11:49 -74.85, 158.29 110.87 3.03 33



Historial Predications of SNOs between AQUA and METOP-B
